{"data":{"norad_id":58867,"epoch":"2026-09-20T06:34:09.719040Z","epoch_age_seconds":172041,"freshness":"FRESH","line1":"1 58867U 24019Q   26263.27372360 -.00002653  00000+0 -86965-4 0  9994","line2":"2 58867  42.9997 229.8123 0001045 275.6757  84.3976 15.27569834148822","mean_motion":15.27569834,"eccentricity":0.0001045,"inclination_deg":42.9997,"raan_deg":229.8123,"arg_perigee_deg":275.6757,"mean_anomaly_deg":84.3976,"bstar":-8.6965e-5,"rev_number":14882,"period_min":94.267376060269,"perigee_km":482.36253974157,"apogee_km":483.79653399777,"semimajor_km":6861.2165368697,"source":"CELESTRAK","updated_at":"2026-09-21T09:00:33.989792Z"}}